Wind_Speed
12 13 16 12 9 8 9 13 14 14 11 9 9 7 8 9 9 7 11 9 10 14 11 12 14 10 7 5 5 5 6 8 9
12 14 14 11 8 7 8 12 13 12 11 9 8 9 11 13 14 15 14 11 9 7 6 6 8 9 8 10 8 7 8 11 13
13 13 13 10 7 6 6 10 11 11 10 8 6 9 11 13 11 10 9 7 4 3 3 2 3 5 6 6 8 9 10 10 9
12 12 11 8 6 5 4 8 9 9 9 7 6 7 8 8 5 4 4 3 3 3 4 4 4 3 4 4 3 4 4 4 5
12 11 10 8 6 5 5 7 8 8 8 8 7 6 9 7 5 4 2 2 4 4 4 4 4 3 4 4 4 3 4 5 4
12 11 10 9 8 8 7 8 8 8 8 8 7 6 10 9 7 5 3 2 4 4 4 4 4 4 4 4 5 5 5 4 4
11 11 11 10 9 10 10 10 10 9 9 10 10 9 9 10 9 8 6 4 5 5 5 5 5 5 5 5 5 5 4 6 5
11 12 13 13 12 12 12 13 13 11 10 12 13 13 11 10 13 11 10 8 7 7 6 6 6 6 6 5 5 5 5 5 5
13 13 14 14 14 15 15 16 14 13 11 12 13 15 13 11 13 13 12 11 9 8 8 7 7 7 6 6 6 6 5 6 5
13 14 14 14 14 16 18 18 16 15 14 13 13 16 16 14 14 15 15 14 12 11 10 9 9 9 8 7 7 7 7 6 6
17 17 16 16 16 17 19 19 18 18 17 17 17 17 19 17 17 18 18 17 16 15 13 12 12 11 11 10 9 9 8 8 8
20 20 21 19 19 19 19 20 20 21 20 19 20 19 20 21 21 21 20 20 20 19 16 15 15 14 13 12 11 11 10 10 9
23 23 24 24 23 22 21 21 22 23 23 24 23 24 24 24 24 24 23 23 24 22 21 19 17 16 15 14 13 12 11 10 10
26 27 28 27 28 27 25 26 25 26 27 28 28 29 30 28 26 27 27 27 27 27 25 22 21 20 18 16 16 15 14 12 11
29 30 31 30 30 31 30 30 30 30 31 30 31 29 30 32 32 31 29 29 30 30 29 27 25 24 23 20 19 18 17 15 14
25 28 29 28 28 31 33 32 32 32 30 24 23 28 30 32 33 33 33 34 34 32 33 31 29 27 27 27 23 21 20 17 15
28 25 25 26 28 30 31 31 29 28 27 14 7 4 11 23 32 35 36 38 37 36 34 34 33 31 30 31 30 27 23 21 18
21 23 23 21 22 24 26 29 30 24 22 23 14 2 5 3 13 23 31 38 40 37 35 33 34 35 35 34 32 32 29 24 21
15 18 20 21 20 21 21 22 23 25 21 18 23 28 15 4 6 9 13 16 23 28 34 34 34 33 37 38 37 31 31 26 23
12 13 18 21 20 19 19 18 18 18 21 21 18 19 21 19 6 9 5 13 16 20 23 28 34 33 35 38 39 31 30 27 24
Wind_Direction
145 150 159 153 137 107 115 126 134 135 130 118 108 113 117 119 95 106 126 105 102 84 95 85 64 85 125 90 101 101 100 91 100
153 158 165 160 144 118 123 135 144 148 143 134 124 119 123 121 110 106 115 115 105 106 103 84 86 81 104 82 95 109 116 110 104
155 162 167 163 155 134 135 149 154 162 158 152 138 142 137 134 131 126 132 147 137 122 124 96 96 100 102 89 92 106 105 108 119
154 164 166 167 165 163 167 172 166 172 174 169 159 161 167 163 163 171 180 184 132 121 118 114 114 113 140 132 132 175 166 157 139
172 175 177 179 186 198 209 196 189 185 190 190 195 203 203 198 187 182 172 183 149 142 136 133 129 107 99 122 144 151 191 183 176
193 192 193 196 205 215 220 218 215 208 205 209 208 218 201 208 209 217 218 211 180 176 166 154 149 134 125 125 131 133 136 130 130
207 210 210 212 216 221 225 222 218 219 219 222 221 205 214 229 228 227 231 231 207 190 187 184 172 166 156 149 143 143 143 140 139
217 220 219 220 221 224 227 231 228 229 227 226 229 223 228 243 236 233 229 238 219 210 208 203 194 185 174 166 163 163 154 151 145
221 225 225 227 228 232 234 235 235 237 240 235 232 232 240 251 242 241 238 243 227 228 219 213 208 200 196 190 185 178 172 164 159
228 229 229 234 237 241 239 239 239 242 242 238 237 240 247 252 244 245 249 246 246 235 233 225 217 212 208 206 201 196 185 181 177
238 238 239 241 244 246 244 245 246 248 250 247 246 248 252 260 255 253 250 251 251 254 235 229 226 222 216 213 211 203 201 195 186
241 246 247 248 248 249 247 247 249 252 253 253 249 254 253 259 261 259 253 248 250 254 245 234 232 228 225 220 217 213 210 202 201
246 248 250 249 249 250 249 250 249 252 254 256 255 255 253 255 256 258 257 252 250 250 253 247 234 232 233 230 227 225 218 215 208
249 252 254 252 249 250 250 251 250 254 257 258 260 259 257 257 258 257 257 257 253 249 250 252 249 238 233 232 229 227 224 219 217
251 252 255 257 252 251 251 251 253 254 261 263 265 266 259 253 254 256 259 260 256 251 247 247 246 243 238 232 233 230 226 224 219
250 253 256 259 258 257 258 256 255 256 257 263 271 266 260 255 256 255 256 258 258 255 251 246 246 245 242 237 230 231 230 224 225
261 259 261 263 261 260 258 257 257 260 262 246 250 287 274 260 259 255 253 256 258 257 255 251 247 246 246 243 235 226 226 224 220
267 264 263 264 266 270 270 265 261 255 259 254 236 281 240 323 254 258 259 258 256 257 257 256 254 250 247 246 243 236 226 224 220
267 263 261 264 269 271 276 270 266 264 255 256 248 243 259 246 294 263 266 273 272 265 261 261 259 258 253 251 242 238 233 231 222
275 272 262 259 262 267 271 272 269 265 266 253 257 259 256 259 247 286 266 274 273 278 268 266 263 260 260 254 248 240 239 226 226
Height
839 840 840 842 842 842 843 843 845 846 846 846 845 845 845 846 846 845 847 847 848 847 847 846 845 845 845 844 843 843 843 843 843
841 841 842 844 844 844 845 846 847 848 848 847 847 846 847 847 847 847 848 849 850 849 849 848 848 848 847 846 845 845 844 844 844
842 843 844 845 846 846 847 848 849 850 850 849 849 848 849 849 850 850 850 850 850 850 850 849 850 850 850 849 849 848 847 847 846
843 845 846 846 847 848 849 851 851 852 852 852 851 851 851 851 851 850 851 850 850 850 851 851 851 850 850 851 852 852 850 850 848
843 845 846 846 848 849 851 852 852 852 853 853 852 852 852 852 851 851 851 851 851 851 851 852 852 851 851 851 852 852 852 851 852
844 844 845 846 847 850 851 852 852 852 852 853 853 853 853 853 853 853 852 852 852 851 851 851 852 852 851 852 852 852 852 853 853
843 844 845 846 848 849 851 851 852 852 852 852 852 853 854 854 854 853 853 853 852 852 851 851 851 852 851 852 852 853 853 851 853
842 844 845 845 847 848 850 851 851 851 850 851 851 851 852 852 853 853 853 853 853 853 852 852 852 852 852 852 853 853 853 854 853
841 842 844 844 845 847 849 850 850 850 849 850 850 850 850 851 852 852 852 853 853 853 853 853 853 853 853 853 853 853 854 854 855
840 842 842 843 844 845 847 848 848 849 848 849 849 849 849 849 850 851 852 853 853 853 853 853 853 853 853 853 854 854 853 855 856
839 840 841 842 843 844 845 846 847 847 847 847 848 848 848 848 849 849 850 851 851 851 851 851 852 852 852 852 852 852 853 854 854
837 838 838 840 841 843 843 844 844 844 845 844 845 846 846 845 845 846 846 847 848 848 849 849 850 850 851 851 851 852 853 853 855
834 835 835 838 839 840 841 841 841 841 841 842 842 842 843 842 842 842 842 843 844 845 846 846 848 849 850 850 851 852 852 853 854
831 831 832 834 836 836 837 837 838 837 837 837 837 838 839 839 839 838 838 839 839 840 842 844 845 846 848 849 849 850 850 851 852
828 828 828 830 831 832 832 833 833 833 833 833 832 832 833 834 834 834 834 834 834 835 836 838 839 841 843 845 847 847 847 848 848
824 824 825 826 828 828 828 829 829 829 830 830 828 826 826 826 827 829 829 828 828 830 831 833 835 836 837 838 841 843 845 845 847
820 821 822 823 823 823 823 824 824 824 826 826 827 824 821 819 820 820 821 822 822 823 826 828 830 832 834 834 834 837 839 840 842
815 815 816 817 817 818 819 819 819 820 820 820 825 825 822 817 814 815 814 815 815 817 819 821 825 826 827 829 831 832 834 836 836
810 810 811 812 812 813 813 813 814 815 815 816 817 817 816 816 812 812 811 812 813 813 815 815 817 818 821 824 824 826 828 835 834
806 806 806 806 807 808 809 809 810 810 810 811 812 813 814 814 816 809 809 808 808 808 808 810 811 811 814 814 821 824 825 822 831